weather.gov     
National Weather Service

Regional Weather Roundup
NWS Homepage
This page is being discontinued on March 12, 2014.
The same data is available at this site. Please update your bookmarks.
Thank you, and we apologize for the inconvenience.
Please send an email to SR-SRH.Webmaster@noaa.gov with any concerns.


Current Version
Previous Version:    01  02  03  04  05  06  07  08  09  10  11  12  13  14  15  16  17  18  19  20  21  22  23  24  25  26  27  28  29  30  
   31  32  33  34  35  36  37  38  39  40  41  42  43  44  45  46  47  48  49  50  51  52  53  
[Printable]
805
ASUS41 KGYX 290610
RWRGYX
WEATHER ROUNDUP FOR MAINE AND NEW HAMPSHIRE
NATIONAL WEATHER SERVICE GRAY ME
100 AM EST SAT NOV 29 2014

MEZ002-005-006-010-012-015-018-020-021-024-026-027-029-290700-
MAINE

CITY           SKY/WX    TMP DP  RH WIND       PRES   REMARKS
PORTLAND       CLEAR     20  13  74 NW3       30.19R
6HR MIN TEMP:  20; 6HR MAX TEMP:  29;

SANFORD        CLEAR      9   1  72 CALM      30.18R
BAR HARBOR     CLEAR     19  18  93 W3        30.14R
WISCASSET      CLEAR     20  12  71 VRB3      30.19R
6HR MIN TEMP:  20; 6HR MAX TEMP:  26;

ROCKLAND       CLEAR     19  14  79 W6        30.16R
FRYEBURG       CLEAR      6   3  87 W3        30.17R
6HR MIN TEMP:   6; 6HR MAX TEMP:  21;

LEWISTONAUBURN CLEAR     18  10  73 N3        30.15S
AUGUSTA        CLEAR     19  10  68 W5        30.16R
6HR MIN TEMP:  18; 6HR MAX TEMP:  24;

WATERVILLE     CLEAR     18   9  68 CALM      30.12R
BANGOR         PTCLDY    18  11  74 W7        30.14R
6HR MIN TEMP:  12; 6HR MAX TEMP:  24;

GREENVILLE       N/A     17  12  80 VRB6      30.01R
6HR MIN TEMP:  16; 6HR MAX TEMP:  20;

MILLINOCKET    PTCLDY    19  11  70 W3        30.10R
6HR MIN TEMP:  13; 6HR MAX TEMP:  22;

HOULTON        CLOUDY     8   5  87 CALM      30.06R
6HR MIN TEMP:   6; 6HR MAX TEMP:  18; 6HR PCP: TRACE;

PRESQUE ISLE   CLOUDY     9   3  78 CALM      30.05R
6HR MIN TEMP:   7; 6HR MAX TEMP:  18;

FRENCHVILLE    CLEAR      7   4  87 NW7       30.02R
6HR MIN TEMP:   7; 6HR MAX TEMP:  14; 6HR PCP: TRACE;

CARIBOU        CLEAR     10   8  92 NW6       30.05R
6HR MIN TEMP:  10; 6HR MAX TEMP:  15; 6HR PCP: TRACE;

$$

NHZ002-005-008-009-011-012-014-290700-
NEW HAMPSHIRE

CITY           SKY/WX    TMP DP  RH WIND       PRES   REMARKS
PORTSMOUTH     PTCLDY    22  15  76 SW5       30.20R
ROCHESTER      CLEAR     19  12  74 W5        30.18R
6HR MIN TEMP:  18; 6HR MAX TEMP:  24;

NASHUA         CLEAR     15  12  88 CALM      30.23R
MANCHESTER     CLEAR     20  12  71 SW3       30.20R
6HR MIN TEMP:  18; 6HR MAX TEMP:  26;

CONCORD        NOT AVBL
LACONIA        CLEAR     19  14  79 W3        30.15R
PLYMOUTH       FLURRIES  20  19  92 CALM      30.19R
BERLIN         CLOUDY     9   4  80 CALM      30.12R
6HR MIN TEMP:   2; 6HR MAX TEMP:  19;

WHITEFIELD     CLOUDY    18  12  77 SW3       30.14S
6HR MIN TEMP:  14; 6HR MAX TEMP:  21; 6HR PCP: TRACE;

JAFFREY        CLEAR      8   5  87 CALM      30.17R
6HR MIN TEMP:   7; 6HR MAX TEMP:  23;

LEBANON        CLEAR      9   5  84 CALM      30.20R
6HR MIN TEMP:   6; 6HR MAX TEMP:  19;

MT WASHINGTON  BLWGSNOW  -4  -4 100 NW37G48     N/A  VSB 1/16WCI -33
6HR MIN TEMP:  -6; 6HR MAX TEMP:  -1; 6HR PCP:  0.03;

$$

VTZ005-007-008-290700-
VERMONT

CITY           SKY/WX    TMP DP  RH WIND       PRES   REMARKS
ST JOHNSBURY     N/A     16  12  84 MISG      30.17R
MONTPELIER     LGT SNOW  18  13  80 W5        30.18R
BURLINGTON     CLOUDY    20  13  74 CALM      30.21S
$$

MAZ007-012-024-CTZ003-RIZ002-NYZ038-NYZ072-290700-
SOUTHERN NEW ENGLAND AND NY

CITY           SKY/WX    TMP DP  RH WIND       PRES   REMARKS
BOSTON         CLEAR     26  14  60 NW9       30.24R
WORCESTER      CLEAR     17  13  84 W7        30.16S
NANTUCKET      PTCLDY    30  17  58 NW10      30.21R
PROVIDENCE     CLEAR     24  15  68 W8        30.24S
HARTFORD       CLEAR     23  13  65 W3        30.24S
ALBANY         PTCLDY    16  10  77 CALM      30.25R
NEW YORK CITY  MOCLDY    29  12  49 NW7       30.29R
$$

ANZ081-ANZ082-ANZ150-NHZ014-MEZ023>029-290700-
COASTAL MARINE OBSERVATIONS

STATION/POSITION TIME  TEMP    WIND        PRES    WAVE
                       AIR SEA DIR/SP/G            HT/PER
                 (UTC) (F)     (DEG/KT/KT) (MB)    (FT/S)
MOUNT DESERT ROC 0600   29                 1019.7R
MATINICUS ROCK   0600          320/ 15/ 18 1020.5R
PORTLAND WX BUOY 0550   27 48  340/ 16/ 19 1021.7R   2/ 9
WELLS            0500   21 40  300/  6/  8 1021.4R
ISLE OF SHOALS   0600   27     300/ 18/ 20 1022.0R
JEFFREYS LEDGE   0521      51                N/A     4/ 5
CASHES LEDGE BUO 0550   32 49  320/ 17/ 21 1020.5R   4/ 5
$$

.............KEY..............
   WCI - WIND CHILL
   TC  - TEMPERATURE IN CELSIUS
   VSB - VISIBILITY IN MILES
   HX  - HEAT INDEX
   FAIR- INDICATES FEW OR NO CLOUDS BELOW 12,000 FT, WITH NO
         SIGNIFICANT WEATHER AND/OR OBSTRUCTIONS TO VISIBILITY.






U.S. Dept. of Commerce
NOAA National Weather Service
1325 East West Highway
Silver Spring, MD 20910
E-mail: w-nws.webmaster@noaa.gov
Page last modified: May 16, 2007
NATIONAL WEATHER SERVICE: for Safety, for Work, for Fun - FOR LIFE